Location: Coopersdale
(40.3556°N, 78.9372°W)
Time: 09:37:13
(UTC+00:00)

Vanguard 1 - Pass Details

Date: 23 January 2021
Orbit: 649 x 3834 km, 34.2° (Epoch: 07 March)

Event Time Altitude Azimuth Distance (km) Brightness Sun altitude
Rises 23:13:22 0° 280° (W) 7,820 15.9 -9.7°
Reaches altitude 10° 23:18:41 10° 277° (W) 6,909 15.5 -10.6°
Maximum altitude 23:41:14 57° 207° (SSW) 3,819 13.2 -14.8°
Drops below altitude 10° 23:57:18 10° 134° (SE) 5,115 13.4 -17.8°
Sets 00:00:34 0° 130° (SE) 5,771 13.6 -18.4°
